Regional Weather Roundup
Issued by NWS Bismarck, ND

Home | Current Version | Previous Version | Text Only | Print | Product List | Glossary On
Versions: 1 2 3 4 5 6 7 8 9 10 11 12 13 14 15 16 17 18 19 20 21 22 23 24 25 26 27 28 29 30 31 32 33 34 35 36 37 38 39 40 41 42 43 44 45 46 47 48 49 50
000
ASUS43 KBIS 022310
RWRBIS

NWR BROADCAST TEXT
NATIONAL WEATHER SERVICE BISMARCK ND
600 PM CDT TUE JUN 02 2015

NOTE: "FAIR" INDICATES FEW OR NO CLOUDS BELOW 12,000 FEET WITH NO
SIGNIFICANT WEATHER AND/OR OBSTRUCTIONS TO VISIBILITY.


CITY           SKY/WX    TMP DP  RH WIND       PRES   REMARKS
WILLISTON      HVY RAIN  56  53  90 N21G30    29.81R FOG
MINOT          CLOUDY    61  57  87 NE14      29.76F
MINOT AFB      CLOUDY    60  60 100 E14       29.76F
BISMARCK       MOSUNNY   73  65  75 E7        29.72R
DICKINSON      PTSUNNY   71  56  58 W16G25    29.77R
GARRISON         N/A     69  62  78 E14G25    29.73F
HETTINGER ARPT SUNNY     75  56  51 NW18G26   29.79R
JAMESTOWN      PTSUNNY   77  63  61 SE8       29.70F
BEACH          CLOUDY    59  55  88 W21G30    29.85R
CARRINGTON     CLOUDY    66  66 100 NE14      29.75F
CROSBY         RAIN      55  55 100 N14       29.87R
HARVEY         CLOUDY    64  64 100 E15       29.75F
HAZEN          FAIR      72  63  73 NE8       29.73F
LINTON         FAIR      81  70  69 NW5       29.70S
MANDAN         FAIR      72  66  83 NE6       29.73S
OAKES            N/A     81  66  61 S14       29.68F
STANLEY        LGT RAIN  55  55 100 NW12G26   29.83R
$$

CITY           SKY/WX    TMP DP  RH WIND       PRES   REMARKS
GRAND FORKS    CLOUDY    69  60  73 E5        29.76F
GRAND FORKS AF CLOUDY    68  60  75 NE5       29.77F
DEVILS LAKE    CLOUDY    63  57  82 E15       29.78S
FARGO          CLOUDY    78  62  57 S13       29.73F
CANDO          CLOUDY    63  59  88 NE10      29.81S
CAVALIER       LGT RAIN  61  61 100 E7        29.81F
GRAFTON          N/A     61  61 100 NE8       29.80F THUNDER
LANGDON        CLOUDY    61  61 100 NE14G21   29.82S
ROLLA          CLOUDY    57  57 100 NE10      29.84S
WALHALLA       FAIR      63  63 100 MISG      29.82S
$$

CITY           SKY/WX    TMP DP  RH WIND       PRES   REMARKS
ABERDEEN       PTSUNNY   87  63  44 S16       29.68F
MOBRIDGE       MOSUNNY   86  61  42 NW10      29.67S
BUFFALO          N/A     77  54  44 NW21G28   29.74S
RAPID CITY     TSTM      74  56  53 N13       29.81S
GLASGOW        CLOUDY    61  51  70 NE8       29.90S
SIDNEY         CLOUDY    57  54  88 NW24G31   29.80R
WOLF POINT     CLOUDY    62  54  74 NE8       29.89R
GLENDIVE       CLOUDY    59  52  77 NW22      29.87R
MILES CITY     CLOUDY    62  54  74 N15       29.88R
BAKER          PTSUNNY   66  54  65 NW18G29   29.84F
$$

CITY           SKY/WX    TMP DP  RH WIND       PRES   REMARKS
BILLINGS       MOSUNNY   68  56  65 E13       29.87R
GREAT FALLS    TSTM      57  51  80 NW12      29.90R
REGINA         CLOUDY    64  36  34 NE7G17    29.93F
ESTEVAN        LGT RAIN  55  54  94 N12       29.87R
$$



USA.gov is the U.S. government's official web portal to all federal, state and local government web resources and services.